SSEC Globe Logo

Space Science and Engineering Center

Surface Aviation Observations

KAIG 271815Z AUTO 35008KT 10SM OVC016 M02/M05 A2995 RMK AO2
     T10201046=
KAIG 271815Z AUTO 35008KT 10SM OVC016 M02/M05 A2995 RMK AO2
     T10201046=
KAIG 271755Z AUTO 34004KT 10SM OVC016 M02/M05 A2996 RMK AO2
     T10211047 11021 21031=
KAIG 271755Z AUTO 34004KT 10SM OVC016 M02/M05 A2996 RMK AO2
     T10211047 11021 21031=
KC29 271815Z AUTO 31005KT 7SM OVC012 00/M02 A3000 RMK AO1
     T00021025=
KC29 271815Z AUTO 31005KT 7SM OVC012 00/M02 A3000 RMK AO1
     T00021025=
KC29 271755Z AUTO 31004KT 5SM OVC012 00/M03 A3000 RMK AO1
     T00001026 10000 21023=
KC29 271755Z AUTO 31004KT 5SM OVC012 00/M03 A3000 RMK AO1
     T00001026 10000 21023=
KBCK 271815Z AUTO 31005KT 10SM OVC010 00/M02 A3002 RMK AO2
     T10051025=
KBCK 271815Z AUTO 31005KT 10SM OVC010 00/M02 A3002 RMK AO2
     T10051025=
KBCK 271755Z AUTO 32004KT 10SM OVC008 M01/M02 A3002 RMK AO2
     T10071025 11007 21033=
KBCK 271755Z AUTO 32004KT 10SM OVC008 M01/M02 A3002 RMK AO2
     T10071025 11007 21033=
KUBE 271815Z AUTO 00000KT 10SM OVC015 M02/M06 A3002 RMK AO2=
KUBE 271815Z AUTO 00000KT 10SM OVC015 M02/M06 A3002 RMK AO2=
KUBE 271755Z AUTO 34003KT 10SM OVC015 M02/M06 A3002 RMK AO2=
KUBE 271755Z AUTO 34003KT 10SM OVC015 M02/M06 A3002 RMK AO2=
KPVB 271815Z AUTO 29004KT 7SM OVC009 M01/M02 A3001 RMK AO1
     T10111016=
KPVB 271815Z AUTO 29004KT 7SM OVC009 M01/M02 A3001 RMK AO1
     T10111016=
KPVB 271755Z AUTO 29005KT 7SM OVC009 M01/M02 A3001 RMK AO1
     T10121017 11012 21035=
KPVB 271755Z AUTO 29005KT 7SM OVC009 M01/M02 A3001 RMK AO1
     T10121017 11012 21035=
KEZS 271815Z AUTO 36005KT 10SM OVC020 01/M04 A2998 RMK AO2
     T00051037=
KEZS 271815Z AUTO 36005KT 10SM OVC020 01/M04 A2998 RMK AO2
     T00051037=
KEZS 271755Z AUTO 01006KT 10SM OVC020 01/M04 A2999 RMK AO2
     T00051037 10005 21002=
KEZS 271755Z AUTO 01006KT 10SM OVC020 01/M04 A2999 RMK AO2
     T00051037 10005 21002=
KARV 271815Z AUTO 33004KT 10SM BKN014 OVC021 00/M02 A2995
     RMK AO2 T10011020=
KARV 271815Z AUTO 33004KT 10SM BKN014 OVC021 00/M02 A2995
     RMK AO2 T10011020=
KARV 271755Z AUTO 00000KT 7SM OVC014 00/M02 A2995 RMK AO2
     T10011020 11001 21030=
KARV 271755Z AUTO 00000KT 7SM OVC014 00/M02 A2995 RMK AO2
     T10011020 11001 21030=
KASX 271753Z AUTO 25006KT 10SM OVC016 M02/M06 A3004 RMK AO2
     SLP183 T10221056 11022 21028 50001=
KASX 271753Z AUTO 25006KT 10SM OVC016 M02/M06 A3004 RMK AO2
     SLP183 T10221056 11022 21028 50001=
KATW 271745Z 35009KT 10SM OVC019 00/M06 A2997=
KATW 271745Z 35009KT 10SM OVC019 00/M06 A2997=
KAUW 271754Z AUTO 34003KT 10SM OVC018 M01/M04 A2996 RMK AO2
     SLP165 T10111044 11011 21022 50002=
KAUW 271754Z AUTO 34003KT 10SM OVC018 M01/M04 A2996 RMK AO2
     SLP165 T10111044 11011 21022 50002=
KBUU 271815Z AUTO 00000KT 10SM BKN010 OVC030 00/M02 A2998
     RMK AO2 T00001021=
KBUU 271815Z AUTO 00000KT 10SM BKN010 OVC030 00/M02 A2998
     RMK AO2 T00001021=
KBUU 271755Z AUTO 00000KT 10SM BKN010 OVC030 00/M02 A2998
     RMK AO2 T00001021 10000 21020=
KBUU 271755Z AUTO 00000KT 10SM BKN010 OVC030 00/M02 A2998
     RMK AO2 T00001021 10000 21020=
KCLI 271815Z AUTO 34005KT 10SM OVC019 00/M04 A2998 RMK AO2
     T00011042=
KCLI 271815Z AUTO 34005KT 10SM OVC019 00/M04 A2998 RMK AO2
     T00011042=
KCLI 271755Z AUTO 36005KT 10SM OVC023 00/M04 A2999 RMK AO2
     T00011045 10002 21008=
KCLI 271755Z AUTO 36005KT 10SM OVC023 00/M04 A2999 RMK AO2
     T00011045 10002 21008=
KCMY 271815Z AUTO 30004KT 5SM BR OVC009 M02/M03 A3003 RMK
     AO2 T10161031=
KCMY 271815Z AUTO 30004KT 5SM BR OVC009 M02/M03 A3003 RMK
     AO2 T10161031=
KCMY 271755Z AUTO 31003KT 7SM OVC009 M02/M03 A3003 RMK AO2
     T10161032 11016 21045=
KCMY 271755Z AUTO 31003KT 7SM OVC009 M02/M03 A3003 RMK AO2
     T10161032 11016 21045=
KCWA 271750Z 35004KT 10SM OVC020 M01/M05 A2999=
KCWA 271750Z 35004KT 10SM OVC020 M01/M05 A2999=
KDLL 271815Z AUTO 31003KT 4SM BR OVC005 M02/M02 A3000 RMK
     AO2 T10201025=
KDLL 271815Z AUTO 31003KT 4SM BR OVC005 M02/M02 A3000 RMK
     AO2 T10201025=
KDLL 271755Z AUTO 00000KT 2SM -RA OVC007 M02/M02 A3000 RMK
     AO2 T10201025 11018 21045=
KDLL 271755Z AUTO 00000KT 2SM -RA OVC007 M02/M02 A3000 RMK
     AO2 T10201025 11018 21045=
KEAU 271756Z 26004KT 4SM HZ OVC006 M01/M04 A3002 RMK AO2
     SLP179 I6000 T10111039 11011 21033 50002=
KEAU 271756Z 26004KT 4SM HZ OVC006 M01/M04 A3002 RMK AO2
     SLP179 I6000 T10111039 11011 21033 50002=
KEFT 271815Z AUTO 31004KT 10SM OVC022 00/M03 A2998 RMK AO2
     T10051030=
KEFT 271815Z AUTO 31004KT 10SM OVC022 00/M03 A2998 RMK AO2
     T10051030=
KEFT 271755Z AUTO 33004KT 10SM SCT009 OVC020 M01/M03 A2998
     RMK AO2 T10061031 11006 21031=
KEFT 271755Z AUTO 33004KT 10SM SCT009 OVC020 M01/M03 A2998
     RMK AO2 T10061031 11006 21031=
KEGV 271815Z AUTO 32005KT 7SM OVC014 M02/M05 A2995 RMK AO2
     T10221049=
KEGV 271815Z AUTO 32005KT 7SM OVC014 M02/M05 A2995 RMK AO2
     T10221049=
KEGV 271755Z AUTO 36004KT 10SM OVC014 M02/M05 A2995 RMK AO2
     T10221050 11019 21031=
KEGV 271755Z AUTO 36004KT 10SM OVC014 M02/M05 A2995 RMK AO2
     T10221050 11019 21031=
KENW 271813Z 30006KT 10SM OVC029 02/M02 A2998 RMK AO2
     T00171022=
KENW 271753Z 31005KT 9SM OVC030 02/M02 A2997 RMK AO2 SLP158
     T00171017 10017 21006 50006=
KENW 271753Z 31005KT 9SM OVC030 02/M02 A2997 RMK AO2 SLP158
     T00171017 10017 21006 50006=
KETB 271815Z AUTO 33006KT 10SM OVC010 00/M01 A2997 RMK AO2=
KETB 271815Z AUTO 33006KT 10SM OVC010 00/M01 A2997 RMK AO2=
KETB 271755Z AUTO 33004KT 7SM OVC008 00/M01 A2997 RMK AO2=
KETB 271755Z AUTO 33004KT 7SM OVC008 00/M01 A2997 RMK AO2=
KFLD 271753Z AUTO 02008KT 10SM BKN016 OVC025 01/M03 A2999
     RMK AO2 SLP164 60000 I6000 T00061033 10011 21011 50007=
KFLD 271753Z AUTO 02008KT 10SM BKN016 OVC025 01/M03 A2999
     RMK AO2 SLP164 60000 I6000 T00061033 10011 21011 50007=
KGRB 271753Z 32008KT 10SM OVC021 01/M04 A2998 RMK AO2 SLP162
     T00061044 10006 21006 50006=
KGRB 271753Z 32008KT 10SM OVC021 01/M04 A2998 RMK AO2 SLP162
     T00061044 10006 21006 50006=
KHYR 271753Z AUTO 00000KT 10SM OVC012 M02/M06 A3001 RMK AO2
     SLP182 T10221056 11022 21033 50001=
KHYR 271753Z AUTO 00000KT 10SM OVC012 M02/M06 A3001 RMK AO2
     SLP182 T10221056 11022 21033 50001=
KISW 271754Z AUTO 35006KT 10SM OVC026 00/M04 A3000 RMK AO2
     SLP172 T00001039 10000 21028 50003=
KISW 271754Z AUTO 35006KT 10SM OVC026 00/M04 A3000 RMK AO2
     SLP172 T00001039 10000 21028 50003=
KJVL 271745Z 32004KT 5SM BR BKN009 OVC027 00/M02 A3000=
KJVL 271745Z 32004KT 5SM BR BKN009 OVC027 00/M02 A3000=
KLNL 271815Z AUTO 33005KT 10SM OVC013 M02/M05 A2996 RMK AO2
     T10171050=
KLNL 271815Z AUTO 33005KT 10SM OVC013 M02/M05 A2996 RMK AO2
     T10171050=
KLNL 271755Z AUTO 33003KT 7SM BKN013 OVC024 M02/M05 A2996
     RMK AO2 T10171046 11017 21030=
KLNL 271755Z AUTO 33003KT 7SM BKN013 OVC024 M02/M05 A2996
     RMK AO2 T10171046 11017 21030=
KLNR 271816Z AUTO 26005KT 10SM SCT013 OVC027 M01/M04 A3002
     RMK AO2 T10061039=
KLNR 271756Z AUTO 25005KT 10SM OVC013 M01/M04 A3002 RMK AO2
     SLP169 60000 T10111039 11011 21033 50005=
KLNR 271756Z AUTO 25005KT 10SM OVC013 M01/M04 A3002 RMK AO2
     SLP169 60000 T10111039 11011 21033 50005=
KLSE 271753Z 30007KT 10SM OVC009 M01/M04 A3004 RMK AO2
     SLP188 I6001 T10111039 11011 21033 50004=
KLSE 271753Z 30007KT 10SM OVC009 M01/M04 A3004 RMK AO2
     SLP188 I6001 T10111039 11011 21033 50004=
KLUM 271815Z AUTO 26005KT 10SM OVC025 M03/M05 A3004 RMK AO2
     T10281052=
KLUM 271815Z AUTO 26005KT 10SM OVC025 M03/M05 A3004 RMK AO2
     T10281052=
KLUM 271755Z AUTO 25004KT 2 1/2SM BR OVC021 M03/M05 A3004
     RMK AO2 T10341047 11034 21053=
KLUM 271755Z AUTO 25004KT 2 1/2SM BR OVC021 M03/M05 A3004
     RMK AO2 T10341047 11034 21053=
KMDZ 271815Z AUTO 03005KT 10SM OVC016 M02/M05 A2997 RMK AO2
     T10231055=
KMDZ 271815Z AUTO 03005KT 10SM OVC016 M02/M05 A2997 RMK AO2
     T10231055=
KMDZ 271755Z AUTO 33003KT 10SM OVC016 M02/M05 A2998 RMK AO2
     T10241054 11024 21036=
KMDZ 271755Z AUTO 33003KT 10SM OVC016 M02/M05 A2998 RMK AO2
     T10241054 11024 21036=
KMFI 271754Z AUTO 35006KT 10SM OVC023 M01/M05 A2997 RMK AO2
     SLP167 T10061050 11006 21033 50004=
KMFI 271754Z AUTO 35006KT 10SM OVC023 M01/M05 A2997 RMK AO2
     SLP167 T10061050 11006 21033 50004=
KMKE 271752Z 34004KT 10SM BKN017 OVC027 02/M03 A2997 RMK AO2
     SLP156 4/003 933007 T00171028 10017 21006 50006=
KMKE 271752Z 34004KT 10SM BKN017 OVC027 02/M03 A2997 RMK AO2
     SLP156 4/003 933007 T00171028 10017 21006 50006=
KMRJ 271815Z AUTO 30004KT 10SM BKN009 OVC020 00/M02 A2999
     RMK AO2=
KMRJ 271815Z AUTO 30004KT 10SM BKN009 OVC020 00/M02 A2999
     RMK AO2=
KMRJ 271755Z AUTO 33003KT 10SM SCT007 OVC020 00/M02 A2999
     RMK AO2=
KMRJ 271755Z AUTO 33003KT 10SM SCT007 OVC020 00/M02 A2999
     RMK AO2=
KMSN 271753Z VRB04KT 10SM OVC010 M01/M03 A3000 RMK AO2 SNE35
     SLP169 4/007 933017 P0000 60000 T10061033 11006 21028
     50007=
KMSN 271753Z VRB04KT 10SM OVC010 M01/M03 A3000 RMK AO2 SNE35
     SLP169 4/007 933017 P0000 60000 T10061033 11006 21028
     50007=
KMTW 271756Z AUTO 34009KT 10SM OVC019 00/M03 A2998 RMK AO2
     SLP161 T00001033 10006 21006 50007 FZRANO=
KMTW 271756Z AUTO 34009KT 10SM OVC019 00/M03 A2998 RMK AO2
     SLP161 T00001033 10006 21006 50007 FZRANO=
KMWC 271745Z 34006KT 10SM BKN013 OVC027 01/M03 A2999=
KMWC 271745Z 34006KT 10SM BKN013 OVC027 01/M03 A2999=
KOEO 271815Z AUTO 25003KT 10SM OVC016 M03/M04 A3010 RMK AO2
     T10271042 PWINO=
KOEO 271815Z AUTO 25003KT 10SM OVC016 M03/M04 A3010 RMK AO2
     T10271042 PWINO=
KOEO 271755Z AUTO 24004KT 10SM OVC016 M03/M04 A3010 RMK AO2
     T10271039 11027 21045 PWINO=
KOEO 271755Z AUTO 24004KT 10SM OVC016 M03/M04 A3010 RMK AO2
     T10271039 11027 21045 PWINO=
KOSH 271753Z 36007KT 10SM OVC026 01/M04 A2998 RMK AO2 SLP166
     T00061039 10006 21011 50006=
KOSH 271753Z 36007KT 10SM OVC026 01/M04 A2998 RMK AO2 SLP166
     T00061039 10006 21011 50006=
KOVS 271753Z AUTO 29004KT 10SM OVC015 00/M04 A3004 RMK AO2
     SLP181 T00001044 10000 21022 50001=
KOVS 271753Z AUTO 29004KT 10SM OVC015 00/M04 A3004 RMK AO2
     SLP181 T00001044 10000 21022 50001=
KOVS 271746Z AUTO 28004KT 10SM OVC015 M01/M04 A3004 RMK AO2
     T10061044=
KPBH 271815Z AUTO 02005KT 10SM OVC018 M02/M05 A2998 RMK AO2
     T10201051=
KPBH 271815Z AUTO 02005KT 10SM OVC018 M02/M05 A2998 RMK AO2
     T10201051=
KPBH 271755Z AUTO 34005KT 10SM OVC018 M02/M05 A2998 RMK AO2
     T10201050 11018 21040=
KPBH 271755Z AUTO 34005KT 10SM OVC018 M02/M05 A2998 RMK AO2
     T10201050 11018 21040=
KPCZ 271815Z AUTO 36003KT 10SM OVC021 02/M03 A2999 RMK AO2
     T00181034=
KPCZ 271815Z AUTO 36003KT 10SM OVC021 02/M03 A2999 RMK AO2
     T00181034=
KPCZ 271755Z AUTO 34005KT 10SM OVC021 02/M03 A2999 RMK AO2
     T00191032 10020 21005=
KPCZ 271755Z AUTO 34005KT 10SM OVC021 02/M03 A2999 RMK AO2
     T00191032 10020 21005=
KPDC 271815Z AUTO 33003KT 10SM OVC012 M01/M04 A3004 RMK AO2
     T10111043=
KPDC 271815Z AUTO 33003KT 10SM OVC012 M01/M04 A3004 RMK AO2
     T10111043=
KPDC 271755Z AUTO 33004KT 7SM OVC010 M01/M04 A3004 RMK AO2
     T10131043 11013 21027=
KPDC 271755Z AUTO 33004KT 7SM OVC010 M01/M04 A3004 RMK AO2
     T10131043 11013 21027=
KRAC 271753Z AUTO 01007KT 10SM BKN020 OVC029 02/M03 A2999
     RMK AO2 SLP161 60000 T00171028 10017 21011 50007=
KRAC 271753Z AUTO 01007KT 10SM BKN020 OVC029 02/M03 A2999
     RMK AO2 SLP161 60000 T00171028 10017 21011 50007=
KRCX 271815Z AUTO 00000KT 10SM OVC015 M01/M04 A3002 RMK AO2
     T10091044=
KRCX 271815Z AUTO 00000KT 10SM OVC015 M01/M04 A3002 RMK AO2
     T10091044=
KRCX 271755Z AUTO 00000KT 10SM OVC015 M01/M05 A3002 RMK AO2
     T10081046 11008 21035=
KRCX 271755Z AUTO 00000KT 10SM OVC015 M01/M05 A3002 RMK AO2
     T10081046 11008 21035=
KRHI 271809Z AUTO 32004KT 10SM OVC015 M02/M06 A2995 RMK AO2
     T10171056=
KRHI 271753Z AUTO VRB03KT 10SM OVC014 M02/M06 A2996 RMK AO2
     SLP166 60000 T10221056 11022 21033 58004=
KRHI 271753Z AUTO VRB03KT 10SM OVC014 M02/M06 A2996 RMK AO2
     SLP166 60000 T10221056 11022 21033 58004=
KRNH 271815Z AUTO 25004KT 10SM OVC015 M02/M06 A3005 RMK AO2
     T10211058=
KRNH 271815Z AUTO 25004KT 10SM OVC015 M02/M06 A3005 RMK AO2
     T10211058=
KRNH 271755Z AUTO 26005KT 10SM OVC015 M02/M06 A3006 RMK AO2
     T10221057 11020 21047=
KRNH 271755Z AUTO 26005KT 10SM OVC015 M02/M06 A3006 RMK AO2
     T10221057 11020 21047=
KRPD 271815Z AUTO 00000KT 10SM OVC016 02/M02 A3004 RMK AO2
     T00151025=
KRPD 271815Z AUTO 00000KT 10SM OVC016 02/M02 A3004 RMK AO2
     T00151025=
KRPD 271755Z AUTO 00000KT 10SM OVC016 01/M02 A3004 RMK AO2
     T00111018 10012 21005=
KRPD 271755Z AUTO 00000KT 10SM OVC016 01/M02 A3004 RMK AO2
     T00111018 10012 21005=
KRRL 271815Z AUTO 01004KT 10SM OVC020 M01/M05 A2998 RMK AO2
     T10111050 TSNO=
KRRL 271815Z AUTO 01004KT 10SM OVC020 M01/M05 A2998 RMK AO2
     T10111050 TSNO=
KRRL 271755Z AUTO 36006KT 10SM OVC020 M01/M05 A2998 RMK AO2
     T10111050 11011 21026 TSNO=
KRRL 271755Z AUTO 36006KT 10SM OVC020 M01/M05 A2998 RMK AO2
     T10111050 11011 21026 TSNO=
KRYV 271815Z AUTO 29004KT 10SM OVC008 00/M01 A2998 RMK AO2
     T10051006=
KRYV 271815Z AUTO 29004KT 10SM OVC008 00/M01 A2998 RMK AO2
     T10051006=
KRYV 271755Z AUTO 32004KT 10SM OVC008 M01/M01 A2998 RMK AO2
     T10061007 11006 21027=
KRYV 271755Z AUTO 32004KT 10SM OVC008 M01/M01 A2998 RMK AO2
     T10061007 11006 21027=
KRZN 271815Z AUTO 28005KT 10SM OVC012 M03/M05 A3005 RMK AO2
     T10271051=
KRZN 271815Z AUTO 28005KT 10SM OVC012 M03/M05 A3005 RMK AO2
     T10271051=
KRZN 271755Z AUTO 26005KT 10SM OVC012 M03/M05 A3005 RMK AO2
     T10261050 11025 21046=
KRZN 271755Z AUTO 26005KT 10SM OVC012 M03/M05 A3005 RMK AO2
     T10261050 11025 21046=
KSBM 271753Z AUTO 35007KT 10SM OVC017 00/M04 A2997 RMK AO2
     SLP159 T00001039 10006 21006 50007=
KSBM 271753Z AUTO 35007KT 10SM OVC017 00/M04 A2997 RMK AO2
     SLP159 T00001039 10006 21006 50007=
KSTE 271815Z AUTO 35005KT 10SM OVC023 M01/M05 A2998 RMK AO2
     T10101054=
KSTE 271815Z AUTO 35005KT 10SM OVC023 M01/M05 A2998 RMK AO2
     T10101054=
KSTE 271755Z AUTO 36006KT 10SM OVC023 M01/M05 A2999 RMK AO2
     T10111055 11011 21030=
KSTE 271755Z AUTO 36006KT 10SM OVC023 M01/M05 A2999 RMK AO2
     T10111055 11011 21030=
KSUE 271756Z AUTO 34009KT 10SM OVC019 01/M03 A2997 RMK AO2
     SLP157 T00061033 10006 21011 50006 FZRANO $=
KSUE 271756Z AUTO 34009KT 10SM OVC019 01/M03 A2997 RMK AO2
     SLP157 T00061033 10006 21011 50006 FZRANO $=
KSUW 271815Z AUTO 26004KT 10SM OVC012 M05/M07 A3007 RMK AO2
     T10481075=
KSUW 271815Z AUTO 26004KT 10SM OVC012 M05/M07 A3007 RMK AO2
     T10481075=
KSUW 271755Z AUTO 24004KT 10SM OVC012 M05/M08 A3007 RMK AO2
     T10481076 11035 21050=
KSUW 271755Z AUTO 24004KT 10SM OVC012 M05/M08 A3007 RMK AO2
     T10481076 11035 21050=
KTKV 271815Z AUTO 34004KT 10SM OVC017 M01/M05 A2997 RMK AO2
     T10151051=
KTKV 271815Z AUTO 34004KT 10SM OVC017 M01/M05 A2997 RMK AO2
     T10151051=
KTKV 271755Z AUTO 33005KT 10SM SCT011 OVC017 M01/M05 A2997
     RMK AO2 T10141049 11012 21035=
KTKV 271755Z AUTO 33005KT 10SM SCT011 OVC017 M01/M05 A2997
     RMK AO2 T10141049 11012 21035=
KUES 271745Z 29005KT 7SM OVC008 M01/M03 A2998=
KUES 271745Z 29005KT 7SM OVC008 M01/M03 A2998=
KUNU 271815Z AUTO 30003KT 10SM SCT005 BKN010 OVC026 M01/M03
     A2999 RMK AO2 T10091026=
KUNU 271815Z AUTO 30003KT 10SM SCT005 BKN010 OVC026 M01/M03
     A2999 RMK AO2 T10091026=
KUNU 271755Z AUTO 30003KT 5SM BR BKN004 OVC007 M01/M02 A2999
     RMK AO2 T10121021 11012 21030=
KUNU 271755Z AUTO 30003KT 5SM BR BKN004 OVC007 M01/M02 A2999
     RMK AO2 T10121021 11012 21030=
KVOK 271756Z 30005KT 10SM OVC008 M01/M01 A3001 RMK AO2A
     SLP178 60000 50005=
KVOK 271756Z 30005KT 10SM OVC008 M01/M01 A3001 RMK AO2A
     SLP178 60000 50005=
METAR KVOK 271756Z 30005KT 10SM OVC008 M01/M01 A3001 RMK
     AO2A SLP178 60000 50005=
KVOK 271756Z 30005KT 10SM OVC008 M01/M01 A3001 RMK AO2A
     SLP178 60000 50005=
METAR KVOK 271756Z 30005KT 10SM OVC008 M01/M01 A3001 RMK
     AO2A SLP178 60000 50005=
KY50 271756Z AUTO 33006KT 10SM SCT014 OVC026 01/M03 A3000
     RMK AO2 SLP169 6//// T00061028 10017 21022 50004 FZRANO
     $=
KY50 271756Z AUTO 33006KT 10SM SCT014 OVC026 01/M03 A3000
     RMK AO2 SLP169 6//// T00061028 10017 21022 50004 FZRANO
     $=
KY50 271748Z AUTO 00000KT 10SM SCT012 OVC026 02/M02 A3000
     RMK AO2 FZRANO $=
KY51 271815Z AUTO 33004KT 10SM OVC006 M02/M02 A3000 RMK AO1
     T10161022=
KY51 271815Z AUTO 33004KT 10SM OVC006 M02/M02 A3000 RMK AO1
     T10161022=
KY51 271755Z AUTO 33006KT 10SM OVC006 M02/M02 A3000 RMK AO1
     T10201023 11020 21046=
KY51 271755Z AUTO 33006KT 10SM OVC006 M02/M02 A3000 RMK AO1
     T10201023 11020 21046=
KY23 271815Z AUTO 00000KT 10SM OVC018 M01/M05 A3003 RMK AO2
     T10121050=
KY23 271815Z AUTO 00000KT 10SM OVC018 M01/M05 A3003 RMK AO2
     T10121050=
KY23 271755Z AUTO 32003KT 10SM OVC016 M01/M05 A3003 RMK AO2
     T10151046 11001 21040=
KY23 271755Z AUTO 32003KT 10SM OVC016 M01/M05 A3003 RMK AO2
     T10151046 11001 21040=
K3D2 271815Z AUTO 34006KT 10SM OVC019 00/M03 A2995 RMK AO2
     T00001029=
K3D2 271815Z AUTO 34006KT 10SM OVC019 00/M03 A2995 RMK AO2
     T00001029=
K3D2 271755Z AUTO 35006KT 10SM OVC019 00/M03 A2995 RMK AO2
     T10011030 10000 21012=
K3D2 271755Z AUTO 35006KT 10SM OVC019 00/M03 A2995 RMK AO2
     T10011030 10000 21012=
KD25 271815Z AUTO 31008KT 10SM SCT014 OVC021 M02/M04 A2995
     RMK AO2 T10201039=
KD25 271815Z AUTO 31008KT 10SM SCT014 OVC021 M02/M04 A2995
     RMK AO2 T10201039=
KD25 271755Z AUTO 33006KT 4SM BR OVC014 M02/M04 A2996 RMK
     AO2 T10211036 11020 21036=
KD25 271755Z AUTO 33006KT 4SM BR OVC014 M02/M04 A2996 RMK
     AO2 T10211036 11020 21036=
K82C 271815Z AUTO 30005KT 10SM OVC009 M01/M02 A3000 RMK AO2
     T10071025=
K82C 271815Z AUTO 30005KT 10SM OVC009 M01/M02 A3000 RMK AO2
     T10071025=
K82C 271755Z AUTO 30005KT 10SM OVC009 M01/M02 A3000 RMK AO2
     T10091025 11009 21032=
K82C 271755Z AUTO 30005KT 10SM OVC009 M01/M02 A3000 RMK AO2
     T10091025 11009 21032=
KOCQ 271815Z AUTO 33006KT 10SM OVC025 01/M04 A2998 RMK AO1
     T00051040=
KOCQ 271815Z AUTO 33006KT 10SM OVC025 01/M04 A2998 RMK AO1
     T00051040=
KOCQ 271755Z AUTO 32003KT 10SM OVC025 00/M04 A2998 RMK AO1
     T00031040 10003 21010=
KOCQ 271755Z AUTO 32003KT 10SM OVC025 00/M04 A2998 RMK AO1
     T00031040 10003 21010=
KC35 271815Z AUTO 34003KT 10SM OVC011 M01/M02 A3000 RMK AO2
     T10061022 PWINO=
KC35 271815Z AUTO 34003KT 10SM OVC011 M01/M02 A3000 RMK AO2
     T10061022 PWINO=
KC35 271755Z AUTO 33004KT 10SM OVC011 M01/M02 A3000 RMK AO2
     T10071022 11007 21038 PWINO=
KC35 271755Z AUTO 33004KT 10SM OVC011 M01/M02 A3000 RMK AO2
     T10071022 11007 21038 PWINO=
KOLG 271815Z AUTO 30005KT 10SM OVC012 M03/M05 A3002 RMK AO1=
KOLG 271815Z AUTO 30005KT 10SM OVC012 M03/M05 A3002 RMK AO1=
KOLG 271755Z AUTO 28005KT 10SM OVC010 M03/M05 A3002 RMK AO1=
KOLG 271755Z AUTO 28005KT 10SM OVC010 M03/M05 A3002 RMK AO1=
K2P2 271815Z AUTO 34007KT 7SM UP OVC018 00/M02 A2995 RMK AO2
     T00001020=
K2P2 271815Z AUTO 34007KT 7SM UP OVC018 00/M02 A2995 RMK AO2
     T00001020=
K2P2 271755Z AUTO 33006KT 10SM OVC018 00/M02 A2995 RMK AO2
     T00001024 10000 21020=
K2P2 271755Z AUTO 33006KT 10SM OVC018 00/M02 A2995 RMK AO2
     T00001024 10000 21020=
KDBQ 271809Z 32004KT 9SM OVC009 M02/M04 A3001=
KDBQ 271809Z 32004KT 9SM OVC009 M02/M04 A3001 RMK AO2
     T10171039=
KDBQ 271753Z 00000KT 9SM OVC010 M02/M04 A3001 RMK AO2 SLP176
     T10171039 11017 21039 50008=
KDBQ 271753Z 00000KT 9SM OVC010 M02/M04 A3001 RMK AO2 SLP176
     T10171039 11017 21039 50008=
KRST 271813Z 29004KT 10SM SCT005 OVC010 M05/M07 A3003 RMK
     AO2 T10501067=
KRST 271754Z 30004KT 10SM OVC005 M05/M07 A3004 RMK AO2
     SLP192 60000 I6002 T10501067 11050 21061 50005=
KRST 271754Z 30004KT 10SM OVC005 M05/M07 A3004 RMK AO2
     SLP192 60000 I6002 T10501067 11050 21061 50005=
KMSP 271753Z 29004KT 10SM OVC013 M03/M06 A3008 RMK AO2
     SLP197 4/007 933013 60000 I6000 T10281061 11028 21044
     50005=
KMSP 271753Z 29004KT 10SM OVC013 M03/M06 A3008 RMK AO2
     SLP197 4/007 933013 60000 I6000 T10281061 11028 21044
     50005=
KRFD 271754Z 30006KT 7SM OVC011 00/M03 A3002 RMK AO2 SLP173
     4/005 933012 60000 I6000 T00001028 10000 21022 50006=
KRFD 271754Z 30006KT 7SM OVC011 00/M03 A3002 RMK AO2 SLP173
     4/005 933012 60000 I6000 T00001028 10000 21022 50006=
KORD 271751Z 30005KT 5SM -SN BR OVC010 01/M02 A2997 RMK AO2
     CIG 009V014 SLP157 P0000 60000 T00061017 10006 21017
     50006=
KORD 271751Z 30005KT 5SM -SN BR OVC010 01/M02 A2997 RMK AO2
     CIG 009V014 SLP157 P0000 60000 T00061017 10006 21017
     50006=